THOR ABLESTAR DEB, 13512

Orbit data source: Space-Track

THOR ABLESTAR DEB, 13512 is space debris in LEO originally from a launch on Thu, 29 Jun 1961 UTC launched from the Air Force Eastern Test Range (AFETR). Debris objects in space refer to the collection of defunct objects orbiting the Earth. Examples of debris include non-operational satellites, rocket bodies, and fragments generated from explosions, collisions, or faulty payload assembly.

Loading next visibility...
Identifier
13512, 1961-015KV
Orbit
LEO
Country
Flag of USUS
Related business
Manufacturer
Unknown
Mission
Spacecraft
Bus & Motor
Unknown
Mass
Unknown
Launch date (UTC)
1961-06-29 (65 years ago)
Launch vehicle
Unknown
Launch site
Air Force Eastern Test Range (AFETR)
Object type
Payload
Rocket body
Debris
Shape & HBR
Unknown shape, 0.1 m
Radar Cross Section
Medium (>0.1 m² and <1 m²)

Expand to show TLE details & history
Last TLE update: 1 day ago

TLE from 1 day ago
0 THOR ABLESTAR DEB
1 13512U 61015KV  26220.91352815  .00006757  00000-0  15581-2 0  9998
2 13512  65.4639 197.7444 0042326 265.9037 120.9567 14.55363961350362
Epoch: 2026-08-08T21:55Z
TLE epoch observation values (Epoch: 2026-08-08T21:55:28.832Z)
Latitude
24.68261°
Longitude
-76.49941°
Altitude
725.8 km
Speed
7.487 km/s
True Right ascension
13h 59m 09s
True Declination
24° 33' 06"
Sunlit
Object was in daylight at epoch
Visualization orbit readout
Latitude
Unknown
Longitude
Unknown
Altitude
Unknown
Speed
Unknown
Apparent Right ascension
Unknown
Apparent Declination
Unknown
Sunlit
N/A
Visualization observer readout
Local Sidereal Time
15:46:19
Azimuth
Unknown
Elevation
Unknown
Doppler factor
Unknown
Orbital elements
Apogee altitude
736.675 km
Perigee altitude
676.701 km
Semi-major axis
7,084.825 km
Eccentricity
0.00423
Inclination
65.4639°
RAAN
197.7444°
Arg. of periapsis
265.9037°
True anomaly
121.3715°
Mean anomaly
120.9567°
Eccentric anomaly
121.16421°
Mean motion
3.63957 °/min
Orbital period
98.91 mins
BSTAR
0.0015581
Loading maneuver chart data...
Computing Atmospheric mass density...
Loading historical data...
Loading historical data...
Loading historical data...
Loading historical data...
Loading historical data...
Loading historical data...
Loading historical data...

Documentation

Showing up to 5 results
|